Pittsburg, KS

7:37 AM CST on January 20, 2017 (GMT -0600)
Atkinson Municipal

Weather History for KPTS - October, 2012

Change the Weather History Date:

Tuesday, October 23, 2012

  Actual Average (KJLN) Record (KJLN)
Temperature  
Mean Temperature 72 °F -  
Max Temperature 75 °F 67 °F 83 °F (1989)
Min Temperature 69 °F 48 °F 28 °F (1981)
Cooling Degree Days 7    
Growing Degree Days 22 (Base 50)    
Moisture  
Dew Point 68 °F    
Average Humidity 87    
Maximum Humidity 100    
Minimum Humidity 71    
Precipitation  
Precipitation 0.00 in - - ()
Sea Level Pressure  
Sea Level Pressure 29.85 in    
Wind  
Wind Speed 13 mph (SSW)    
Max Wind Speed 23 mph    
Max Gust Speed 31 mph    
Visibility 10 miles    
Events      
Averages and records for this station are not official NWS values.
T = Trace of Precipitation, MM = Missing Value Source: NWS Daily Summary

Daily Weather History Graph

Daily Weather History Graph

Search for Another Location

Airport or City:

Trip Planner

Search our weather history database for the weather conditions in past years. The results will help you decide how hot, cold, wet, or windy it might be!

Date:

Astronomy

Oct. 23, 2012 Rise Set
Actual Time 7:35 AM CDT 6:30 PM CDT
Civil Twilight 7:08 AM CDT 6:57 PM CDT
Nautical Twilight 6:37 AM CDT 7:27 PM CDT
Astronomical Twilight 6:07 AM CDT 7:57 PM CDT
Moon 3:08 PM CDT (10/23) 1:35 AM CDT (10/23)
Length of Visible Light 11h 48m
Length of Day
10h 55m
Waxing Gibbous, 67% of the Moon is Illuminated
Oct 23
Waxing Gibbous
Oct 29
Full
Nov 6
Last Quarter
Nov 13
New
Nov 20
First Quarter

Hourly Weather History & Observations

Time (CDT) Temp. Dew Point Humidity Pressure Visibility Wind Dir Wind Speed Gust Speed Precip Events Conditions
12:15 AM 69.1 °F 69.3 °F 100% 29.88 in 10.0 mi South 9.2 mph - N/A   Scattered Clouds
12:35 AM 69.1 °F 69.3 °F 100% 29.88 in 10.0 mi South 11.5 mph - N/A   Mostly Cloudy
12:55 AM 69.1 °F 69.3 °F 100% 29.87 in 10.0 mi South 9.2 mph - N/A   Overcast
1:15 AM 69.1 °F 69.3 °F 100% 29.87 in 10.0 mi South 15.0 mph 20.7 mph N/A   Overcast
1:35 AM 69.1 °F 69.3 °F 100% 29.88 in 10.0 mi South 10.4 mph 20.7 mph N/A   Mostly Cloudy
1:55 AM 69.1 °F 69.3 °F 100% 29.88 in 10.0 mi South 13.8 mph 18.4 mph N/A   Scattered Clouds
2:15 AM 69.1 °F 69.3 °F 100% 29.87 in 10.0 mi South 11.5 mph 19.6 mph N/A   Scattered Clouds
2:35 AM 69.1 °F 69.3 °F 100% 29.87 in 10.0 mi South 11.5 mph - N/A   Scattered Clouds
2:55 AM 69.1 °F 69.3 °F 100% 29.87 in 10.0 mi SSW 11.5 mph 18.4 mph N/A   Scattered Clouds
3:15 AM 69.1 °F 69.3 °F 100% 29.87 in 10.0 mi South 10.4 mph 16.1 mph N/A   Mostly Cloudy
3:35 AM 69.1 °F 69.3 °F 100% 29.86 in 10.0 mi South 12.7 mph 18.4 mph N/A   Overcast
3:55 AM 69.1 °F 69.3 °F 100% 29.86 in 10.0 mi South 10.4 mph - N/A   Mostly Cloudy
4:15 AM 69.1 °F 69.3 °F 100% 29.85 in 10.0 mi South 13.8 mph 18.4 mph N/A   Mostly Cloudy
4:35 AM 69.1 °F 69.3 °F 100% 29.85 in 10.0 mi South 11.5 mph 18.4 mph N/A   Mostly Cloudy
4:55 AM 69.1 °F 69.3 °F 100% 29.84 in 10.0 mi South 12.7 mph 20.7 mph N/A   Scattered Clouds
5:15 AM 69.1 °F 69.3 °F 100% 29.84 in 10.0 mi South 11.5 mph - N/A   Scattered Clouds
5:35 AM 69.1 °F 69.1 °F 100% 29.84 in 10.0 mi SSW 13.8 mph 19.6 mph N/A   Scattered Clouds
5:55 AM 69.1 °F 69.1 °F 100% 29.84 in 10.0 mi South 11.5 mph 20.7 mph N/A   Clear
6:35 AM 69.1 °F 69.3 °F 100% 29.84 in 10.0 mi SSW 12.7 mph - N/A   Clear
6:55 AM 69.1 °F 69.3 °F 100% 29.84 in 10.0 mi South 10.4 mph 17.3 mph N/A   Clear
7:15 AM 69.1 °F 69.3 °F 100% 29.84 in 10.0 mi SSW 13.8 mph - N/A   Clear
7:35 AM 69.1 °F 69.3 °F 100% 29.85 in 10.0 mi SSW 11.5 mph 18.4 mph N/A   Clear
7:55 AM 69.1 °F 69.3 °F 100% 29.85 in 10.0 mi SSW 11.5 mph - N/A   Clear
8:15 AM 69.1 °F 69.3 °F 100% 29.86 in 10.0 mi SSW 9.2 mph - N/A   Scattered Clouds
8:35 AM 69.1 °F 68.9 °F 99% 29.87 in 10.0 mi SW 10.4 mph - N/A   Mostly Cloudy
8:55 AM 69.1 °F 68.0 °F 96% 29.87 in 10.0 mi SSW 13.8 mph 20.7 mph N/A   Overcast
9:15 AM 69.1 °F 66.7 °F 92% 29.87 in 10.0 mi SW 16.1 mph 19.6 mph N/A   Overcast
9:35 AM 69.3 °F 66.6 °F 91% 29.87 in 10.0 mi SSW 15.0 mph 23.0 mph N/A   Overcast
10:15 AM 70.3 °F 67.6 °F 91% 29.88 in 10.0 mi SSW 18.4 mph 26.5 mph N/A   Overcast
10:55 AM 72.0 °F 68.7 °F 89% 29.87 in 10.0 mi SSW 16.1 mph 27.6 mph N/A   Overcast
11:15 AM 72.0 °F 68.5 °F 89% 29.87 in 10.0 mi SSW 16.1 mph 26.5 mph N/A   Overcast
11:35 AM 71.6 °F 68.4 °F 89% 29.87 in 10.0 mi SSW 16.1 mph 24.2 mph N/A   Overcast
11:55 AM 71.6 °F 68.0 °F 88% 29.87 in 10.0 mi SSW 20.7 mph 25.3 mph N/A   Overcast
12:15 PM 73.6 °F 69.4 °F 87% 29.87 in 10.0 mi SSW 18.4 mph 25.3 mph N/A   Overcast
12:35 PM 74.3 °F 69.6 °F 85% 29.86 in 10.0 mi SSW 23.0 mph 27.6 mph N/A   Overcast
12:55 PM 74.3 °F 68.9 °F 83% 29.85 in 10.0 mi SSW 18.4 mph 28.8 mph N/A   Overcast
1:15 PM 74.3 °F 68.0 °F 81% 29.84 in 10.0 mi SSW 21.9 mph 31.1 mph N/A   Mostly Cloudy
1:35 PM 74.3 °F 67.3 °F 79% 29.83 in 10.0 mi SSW 18.4 mph 31.1 mph N/A   Mostly Cloudy
1:55 PM 74.3 °F 66.9 °F 78% 29.82 in 10.0 mi SSW 19.6 mph 31.1 mph N/A   Overcast
2:15 PM 74.3 °F 66.4 °F 76% 29.82 in 10.0 mi SSW 18.4 mph 27.6 mph N/A   Overcast
2:35 PM 74.3 °F 66.2 °F 76% 29.81 in 10.0 mi SSW 21.9 mph 26.5 mph N/A   Overcast
2:55 PM 74.5 °F 66.0 °F 75% 29.81 in 10.0 mi SSW 20.7 mph 28.8 mph N/A   Overcast
3:15 PM 75.2 °F 65.8 °F 73% 29.81 in 10.0 mi SSW 16.1 mph 27.6 mph N/A   Overcast
3:35 PM 75.0 °F 64.9 °F 71% 29.80 in 10.0 mi SSW 17.3 mph 27.6 mph N/A   Overcast
3:55 PM 74.7 °F 64.6 °F 71% 29.80 in 10.0 mi SSW 19.6 mph 26.5 mph N/A   Overcast
4:15 PM 74.3 °F 64.4 °F 71% 29.80 in 10.0 mi SSW 21.9 mph 26.5 mph N/A   Overcast
4:35 PM 74.3 °F 64.4 °F 71% 29.80 in 10.0 mi SSW 18.4 mph 28.8 mph N/A   Overcast
4:55 PM 74.3 °F 64.4 °F 71% 29.80 in 10.0 mi SSW 20.7 mph 26.5 mph N/A   Overcast
5:15 PM 74.3 °F 64.6 °F 72% 29.80 in 10.0 mi SSW 19.6 mph 26.5 mph N/A   Overcast
5:35 PM 74.3 °F 65.3 °F 73% 29.80 in 10.0 mi SSW 18.4 mph 26.5 mph N/A   Overcast
5:55 PM 74.3 °F 65.5 °F 74% 29.80 in 10.0 mi South 16.1 mph 26.5 mph N/A   Overcast
6:15 PM 74.3 °F 66.0 °F 75% 29.81 in 10.0 mi South 15.0 mph 23.0 mph N/A   Mostly Cloudy
6:35 PM 74.3 °F 66.2 °F 76% 29.82 in 10.0 mi South 13.8 mph 21.9 mph N/A   Overcast
6:55 PM 74.3 °F 66.4 °F 76% 29.82 in 10.0 mi SSW 12.7 mph 21.9 mph N/A   Overcast
7:15 PM 74.3 °F 66.4 °F 76% 29.83 in 10.0 mi SSW 13.8 mph 20.7 mph N/A   Overcast
7:35 PM 74.3 °F 66.6 °F 77% 29.84 in 10.0 mi SSW 16.1 mph - N/A   Mostly Cloudy
7:55 PM 74.3 °F 66.6 °F 77% 29.84 in 10.0 mi South 15.0 mph - N/A   Overcast
8:15 PM 74.3 °F 66.7 °F 77% 29.84 in 10.0 mi SSW 12.7 mph 17.3 mph N/A   Mostly Cloudy
8:35 PM 74.3 °F 66.6 °F 77% 29.84 in 10.0 mi South 11.5 mph - N/A   Mostly Cloudy
8:55 PM 74.3 °F 67.1 °F 78% 29.84 in 10.0 mi SSW 11.5 mph 20.7 mph N/A   Scattered Clouds
9:15 PM 73.8 °F 67.1 °F 80% 29.85 in 10.0 mi South 12.7 mph - N/A   Mostly Cloudy
9:35 PM 74.3 °F 67.3 °F 79% 29.85 in 10.0 mi South 11.5 mph - N/A   Overcast
9:55 PM 74.3 °F 67.1 °F 78% 29.86 in 10.0 mi South 13.8 mph 20.7 mph N/A   Overcast
10:15 PM 74.3 °F 66.7 °F 77% 29.86 in 10.0 mi South 15.0 mph 23.0 mph N/A   Overcast
10:35 PM 74.3 °F 66.7 °F 77% 29.86 in 10.0 mi South 15.0 mph 19.6 mph N/A   Overcast
10:55 PM 73.2 °F 66.2 °F 79% 29.86 in 10.0 mi SSW 15.0 mph 18.4 mph N/A   Mostly Cloudy
11:15 PM 71.4 °F 65.5 °F 81% 29.86 in 10.0 mi SSW 11.5 mph 16.1 mph N/A   Scattered Clouds
11:35 PM 70.5 °F 65.5 °F 84% 29.86 in 10.0 mi South 12.7 mph - N/A   Scattered Clouds
11:55 PM 70.9 °F 65.5 °F 83% 29.86 in 10.0 mi SSW 12.7 mph - N/A   Overcast